DLH8973 VMMC-VHHX

Flight info

Callsign DLH8973
Flight time 0h 26m
Altitude 6900
Route ZAO/N0271F050 DCT SL DCT D15 DCT OM13 DCT R288 DCT RW
Aircraft B748/H-SDE3FGHIM1M2RWXY/LB1

Departure

Time 2026-04-28 03:38
Airport Macau International Airport (VMMC)

Arrival

Time 2026-04-28 04:04
Airport Hong Kong International Airport Kai Tak (VHHX)
Time Latitude Longitude Altitude Speed Heading
2026-04-28 03:27 22.15898 113.57793 36 ft 0 kts 104°
2026-04-28 03:32 22.15902 113.57776 36 ft 4 kts 104°
2026-04-28 03:32 22.15909 113.57747 32 ft 4 kts 104°
2026-04-28 03:33 22.15907 113.57721 31 ft 4 kts 11°
2026-04-28 03:33 22.15912 113.57722 35 ft 1 kts 11°
2026-04-28 03:33 22.15922 113.57724 35 ft 1 kts 11°
2026-04-28 03:33 22.15932 113.57726 33 ft 1 kts 11°
2026-04-28 03:34 22.15945 113.57729 36 ft 6 kts 11°
2026-04-28 03:34 22.15994 113.57739 36 ft 7 kts 11°
2026-04-28 03:34 22.16028 113.57748 36 ft 0 kts 17°
2026-04-28 03:35 22.16044 113.57754 36 ft 5 kts 22°
2026-04-28 03:35 22.16082 113.57788 36 ft 9 kts 52°
2026-04-28 03:35 22.16117 113.57865 36 ft 14 kts 69°
2026-04-28 03:36 22.16155 113.57982 36 ft 19 kts 72°
2026-04-28 03:36 22.16205 113.58132 36 ft 23 kts 71°
2026-04-28 03:36 22.16264 113.58312 36 ft 27 kts 71°
2026-04-28 03:36 22.16325 113.58503 36 ft 21 kts 71°
2026-04-28 03:37 22.16331 113.58595 38 ft 9 kts 115°
2026-04-28 03:37 22.16182 113.58696 37 ft 64 kts 163°
2026-04-28 03:37 22.15451 113.58964 34 ft 155 kts 161°
2026-04-28 03:37 22.14174 113.59412 37 ft 224 kts 162°
2026-04-28 03:38 22.12570 113.59954 311 ft 256 kts 161°
2026-04-28 03:38 22.10839 113.60593 1283 ft 268 kts 159°
2026-04-28 03:38 22.09216 113.61544 2806 ft 265 kts 134°
2026-04-28 03:38 22.08356 113.63414 3819 ft 298 kts 107°
2026-04-28 03:39 22.08543 113.65797 4364 ft 348 kts 69°
2026-04-28 03:39 22.10064 113.67808 5756 ft 360 kts 31°
2026-04-28 03:39 22.12424 113.68577 7506 ft 358 kts
2026-04-28 03:39 22.12879 113.68626 7702 ft 363 kts
2026-04-28 03:40 22.14673 113.68520 8194 ft 383 kts 349°
2026-04-28 03:40 22.17349 113.67520 7844 ft 438 kts 330°
2026-04-28 03:40 22.19877 113.65663 7828 ft 426 kts 318°
2026-04-28 03:40 22.21956 113.63570 7712 ft 405 kts 313°
2026-04-28 03:41 22.23853 113.61283 6371 ft 417 kts 306°
2026-04-28 03:41 22.25429 113.58705 6407 ft 392 kts 296°
2026-04-28 03:41 22.26532 113.56201 6984 ft 358 kts 291°
2026-04-28 03:41 22.27495 113.53753 6833 ft 348 kts 289°
2026-04-28 03:42 22.28289 113.51263 6826 ft 357 kts 285°
2026-04-28 03:42 22.29043 113.48726 6827 ft 357 kts 287°
2026-04-28 03:42 22.30214 113.46361 6830 ft 362 kts 307°
2026-04-28 03:42 22.32105 113.44606 6841 ft 367 kts 328°
2026-04-28 03:43 22.34508 113.43669 6842 ft 371 kts 350°
2026-04-28 03:43 22.37090 113.43711 6840 ft 374 kts 11°
2026-04-28 03:43 22.39496 113.44728 6845 ft 374 kts 33°
2026-04-28 03:43 22.41422 113.46601 6844 ft 373 kts 54°
2026-04-28 03:44 22.42607 113.49066 6822 ft 370 kts 75°
2026-04-28 03:44 22.43043 113.51787 6539 ft 366 kts 87°
2026-04-28 03:44 22.43133 113.54513 6123 ft 361 kts 92°
2026-04-28 03:44 22.43064 113.57226 5695 ft 359 kts 95°
2026-04-28 03:45 22.42938 113.59907 5170 ft 358 kts 96°
2026-04-28 03:45 22.42902 113.62620 4496 ft 363 kts 89°
2026-04-28 03:45 22.43133 113.65348 3799 ft 363 kts 85°
2026-04-28 03:45 22.43452 113.67974 3068 ft 342 kts 84°
2026-04-28 03:46 22.43782 113.70454 2309 ft 325 kts 84°
2026-04-28 03:46 22.44100 113.72776 1810 ft 306 kts 84°
2026-04-28 03:46 22.44407 113.74941 1703 ft 277 kts 83°
2026-04-28 03:46 22.44688 113.76902 1692 ft 250 kts 84°
2026-04-28 03:47 22.44952 113.78676 1690 ft 227 kts 85°
2026-04-28 03:47 22.45136 113.80338 1705 ft 219 kts 87°
2026-04-28 03:47 22.45284 113.81989 1744 ft 219 kts 89°
2026-04-28 03:47 22.45439 113.83637 1756 ft 217 kts 87°
2026-04-28 03:48 22.45581 113.85274 1764 ft 223 kts 88°
2026-04-28 03:48 22.45714 113.86896 1756 ft 218 kts 88°
2026-04-28 03:48 22.45785 113.88546 1588 ft 216 kts 90°
2026-04-28 03:48 22.45747 113.90125 1341 ft 207 kts 96°
2026-04-28 03:49 22.45492 113.91589 1340 ft 197 kts 108°
2026-04-28 03:49 22.45005 113.92970 1335 ft 203 kts 115°
2026-04-28 03:49 22.44389 113.94256 1422 ft 194 kts 124°
2026-04-28 03:49 22.43597 113.95449 1175 ft 198 kts 122°
2026-04-28 03:50 22.43028 113.96769 1424 ft 195 kts 111°
2026-04-28 03:50 22.42856 113.98201 1029 ft 195 kts 84°
2026-04-28 03:50 22.43109 113.99626 897 ft 200 kts 78°
2026-04-28 03:50 22.43420 114.01063 898 ft 191 kts 88°
2026-04-28 03:51 22.43152 114.02446 925 ft 186 kts 112°
2026-04-28 03:51 22.42577 114.03745 854 ft 191 kts 122°
2026-04-28 03:51 22.41838 114.04899 1123 ft 186 kts 122°
2026-04-28 03:51 22.41245 114.06141 929 ft 190 kts 111°
2026-04-28 03:52 22.40816 114.07368 1648 ft 169 kts 118°
2026-04-28 03:52 22.40030 114.08333 1749 ft 165 kts 134°
2026-04-28 03:52 22.39384 114.09365 1815 ft 175 kts 123°
2026-04-28 03:52 22.39294 114.09516 1746 ft 180 kts 124°
2026-04-28 04:01 22.39291 114.09520 1739 ft 181 kts 124°
2026-04-28 04:02 22.38613 114.10544 1586 ft 192 kts 125°
2026-04-28 04:02 22.37810 114.11710 1805 ft 194 kts 128°
2026-04-28 04:02 22.36916 114.12848 2040 ft 199 kts 134°
2026-04-28 04:02 22.35820 114.13741 1988 ft 200 kts 153°
2026-04-28 04:03 22.34552 114.14320 1310 ft 198 kts 154°
2026-04-28 04:03 22.33679 114.15380 1315 ft 194 kts 100°
2026-04-28 04:03 22.34092 114.16744 1756 ft 198 kts 65°
2026-04-28 04:03 22.34327 114.18192 1625 ft 193 kts 110°
2026-04-28 04:04 22.33324 114.18937 1071 ft 186 kts 169°
2026-04-28 04:04 22.32217 114.19590 267 ft 192 kts 141°
2026-04-28 04:04 22.31659 114.20197 46 ft 0 kts 131°